Location: Asheville, NC
(35.6000°N, 82.5500°W)
Time: 21:23:34
(UTC-04:00)

Vanguard 1 Rocket - Pass Details

Date: 09 December 2017
Orbit: 653 x 4224 km, 34.3° (Epoch: 19 June)

Event Time Altitude Azimuth Distance (km) Brightness Sun altitude
Rises 01:46:03 0° 288° (WNW) 7,864 - -67.8°
Reaches altitude 10° 01:51:42 10° 281° (W) 7,128 - -66.8°
Maximum altitude 02:13:29 38° 224° (SW) 5,323 - -62.8°
Exits shadow 02:28:32 19° 173° (S) 5,816 11.3 -59.9°
Drops below altitude 10° 02:32:42 10° 165° (SSE) 6,240 11.6 -59.1°
Sets 02:37:21 0° 156° (SSE) 6,831 11.9 -58.1°
